Tracking 30995 objects as of 5-Jul-2025
HD Live streaming from Space Station
objects crossing your sky now

FALCON 9 R/B

Track FALCON 9 R/B now!
10-day predictions


NORAD ID: 48839
Int'l Code: 2021-049B
Perigee: 212.9 km
Apogee: 15,593.3 km
Inclination: 27.0 °
Period: 282.9 minutes
Semi major axis: 14274 km
RCS: Unknown
Launch date: June 6, 2021
Source: United States (US)
Launch site: AIR FORCE EASTERN TEST RANGE (AFETR)

Note: This is a ROCKET BODY
Your satellite tracking list
Your tracking list is empty




NASA's NSSDC Master Catalog

Two Line Element Set (TLE):
1 48839U 21049B   25186.33458510  .00033173  00000-0  88124-3 0  9992
2 48839  27.0315 234.1084 5387522 277.5201  27.2375  5.09071627 68557
Source of the keplerian elements: AFSPC